{"data":{"norad_id":60256,"epoch":"2026-05-25T03:58:09.641568Z","epoch_age_seconds":60690,"freshness":"FRESH","line1":"1 60256U 24131B   26145.16538937  .00001463  00000+0  61503-4 0  9992","line2":"2 60256  53.1602  57.4858 0001209  84.1776 275.9363 15.30196284103424","mean_motion":15.30196284,"eccentricity":0.0001209,"inclination_deg":53.1602,"raan_deg":57.4858,"arg_perigee_deg":84.1776,"mean_anomaly_deg":275.9363,"bstar":6.1503e-5,"rev_number":10342,"period_min":94.105574236253,"perigee_km":474.39759314135,"apogee_km":476.05473635458,"semimajor_km":6853.363164748,"source":"CELESTRAK","updated_at":"2026-05-25T13:38:19.198093Z"}}